User: anonymous   Login
Location: *
(33.8649°S, 62.1526°E)
Time: 02:10:43
(UTC+00:00)
Language:

USA 245 - Orbit

View from above orbital plane
View from above orbital plane
View from above satellite
View from above satellite

Ground track
Ground track

The orbit data is extracted from the following two-line orbital elements,

1 39232U 13043A   21101.87982938 0.00011300  00000-0  11788-3 0    05
2 39232  97.8975 165.4406 0514063 146.6504 213.3495 14.80458991    03
Epoch (UTC): 11 April 2021 21:06:57
Eccentricity: 0.0514063
inclination: 97.8975°
perigee height: 268 km
apogee height: 988 km
right ascension of ascending node: 165.4406°
argument of perigee: 146.6504°
revolutions per day: 14.80458991
mean anomaly at epoch: 213.3495°
orbit number at epoch: 0

The dashed part of the orbit path shows where the satellite is in the earth's shadow,  

DLR